Content
SEND FEEDBACK

Daily
Averages
Monthly
Summary
United States of America

NEW PALTZ, NEW YORK


Home > North America > United States > New York
Elevation: 1243 feet     Latitude: 41 08N     Longitude: 074 33W

WEATHER
 
SELECT A DAY
Number of Records: 175,538;   Date Range: 1/1/95 - 8/30/14
 
SHARE

PRINT THIS DATA

[ ← Previous Day ]
WEATHER ALMANAC - MAY 10, 2013
[ Next Day → ]
[ °C ]   °F
Weather ElementAverageHighLow
Temperature63.8 °F75.9 °F (1:56 pm)52 °F (4:56 am)
Dewpoint52.8 °F55 °F (7:56 am)50 °F (4:56 am)
Humidity70.3 %96 % (1:56 am)40 % (1:56 pm)
Barometer29.95 in29.99 in (7:56 am)29.89 in (11:56 pm)
Wind Speed5.7 mph12.7 mph (4:56 pm)
Weather ElementAverage
Visibility8.6 mi
Wind DirectionSSW (198.3 °)

Weather ElementTotal
Precipitation0.01 in
Heating Degree Days1.1 (Base 65)
Growing Degree Days14 (Base 50)
Averaged from 23 records on May 10, 2013
WEATHER CONDITIONS BREAKOUT
WIND DIRECTION BREAKOUT
WEATHER BY HOUR - MAY 10, 2013
[ °C ]   °F
Local TimeTemperatureDewpointHumidityBarometerVisibilityWind DirectionWind SpeedGust SpeedPrecipitationEventsConditions
1:56 AM53.1 °F52.0 °F96 %29.93 in6.0 miNW (310°)3.5 mphClear
2:56 AM54.0 °F51.1 °F90 %29.94 in5.0 miWNW (290°)5.8 mphClear
3:56 AM55.0 °F52.0 °F89 %29.94 in4.0 miWNW (300°)4.6 mphClear
4:56 AM52.0 °F50.0 °F93 %29.94 in3.0 miNW (310°)6.9 mph0.01 inClear
5:56 AM53.1 °F51.1 °F93 %29.96 in3.0 miCalmFogShallow Fog
6:23 AM55.4 °F51.8 °F88 %29.97 in10.0 miWNW (300°)4.6 mphClear
6:56 AM57.0 °F54.0 °F89 %29.98 in10.0 miNW (310°)3.5 mphClear
7:56 AM61.0 °F55.0 °F81 %29.99 in10.0 miWNW (300°)4.6 mphClear
8:56 AM64.9 °F55.0 °F70 %29.99 in10.0 miNW (310°)5.8 mphClear
9:56 AM68.0 °F55.0 °F63 %29.98 in10.0 miNW (310°)3.5 mphMostly Cloudy
10:56 AM72.0 °F53.1 °F51 %29.98 in10.0 miVariable3.5 mphPartly Cloudy
11:56 AM72.0 °F52.0 °F49 %29.97 in10.0 miSE (140°)3.5 mphPartly Cloudy
12:56 PM75.0 °F51.1 °F43 %29.96 in10.0 miVariable3.5 mphPartly Cloudy
1:56 PM75.9 °F50.0 °F40 %29.95 in10.0 miWNW (290°)5.8 mphPartly Cloudy
3:56 PM75.9 °F52.0 °F43 %29.92 in10.0 miSouth (170°)6.9 mphPartly Cloudy
4:56 PM73.9 °F54.0 °F50 %29.92 in10.0 miSouth (180°)12.7 mphClear
5:56 PM71.1 °F53.1 °F53 %29.94 in10.0 miSouth (170°)10.4 mphClear
6:56 PM68.0 °F53.1 °F59 %29.93 in10.0 miSouth (170°)9.2 mphScattered Clouds
7:56 PM66.0 °F54.0 °F65 %29.93 in10.0 miSSE (160°)10.4 mphMostly Cloudy
8:56 PM63.0 °F54.0 °F72 %29.92 in10.0 miSSE (150°)5.8 mphMostly Cloudy
9:56 PM61.0 °F54.0 °F78 %29.93 in10.0 miSE (140°)6.9 mphClear
10:56 PM60.1 °F54.0 °F80 %29.91 in9.0 miSE (140°)4.6 mphClear
11:56 PM59.0 °F54.0 °F83 %29.89 in8.0 miESE (110°)4.6 mphClear
Hourly data recorded from KHPN, located miles away from New Paltz, New York







STORIES FROM OUR PARTNERS